www.pogodaiklimat.ru

Погода и климат >> Архив погоды >> Казахстан >> Алматы


АРХИВ ПОГОДЫ в Алматы

Время (UTC), дата Ветер
(напр.,м/с)
 
Видим.   Явления Облачность Т
(С)
Тd
(С)
f
(%)
Тe
(С)
Тes
(С)
Комфортность P
(гПа)
Po
(гПа)
Тmin
(С)
Tmax
(С)
R
(мм)
S
(см)
21 14.02 штиль 0 н/о слабый ливневой снег 10/10 600 м
[Cb cap]
-5.7 -6.8 92 -7 -7 по сезону 1027.7 923.5
00 15.02 ЮЗ 1
{2}
н/о {ливн. осадки} 10/10 600 м
[Cb cap]
-6.2 -7.3 92 -9 -9 по сезону 1028.0 923.5
03 15.02 штиль 0 10 км 10/10 600 м
[Cb cap]
-5.0 -6.3 91 -6 -6 по сезону 1028.3 924.3 27
06 15.02 СВ 2 10 км {ливн. осадки} 10/9 600 м
[Cb cap Ac As]
-2.0 -5.3 78 -6 -6 прохладно 1027.9 925.0 -6.4 0.4
09 15.02 штиль 0 10 км 9/4 1000 м
[Cb cap Ac trans Ci sp]
+4.5 -3.2 57 +4 +6 тепло 1024.3 924.0
12 15.02 штиль 0 10 км 10/8 600 м
[Cb cap Ac und]
+3.2 -2.2 68 +3 +3 тепло 1025.8 925.0
15 15.02 Ю 1 н/о 6/0
[Ac trans Ci fib]
+0.9 -2.2 80 -1 -1 по сезону 1026.8 925.1 +5.2
18 15.02 штиль 0 н/о 6/0
[Ci fib]
-1.3 -2.8 90 -3 -3 по сезону 1027.2 924.7 +5.2 0.0
21 15.02 штиль 0 н/о ясно -2.1 -3.0 94 -3 -3 по сезону 1027.2 924.3
00 16.02 штиль 0
{2}
н/о ясно -2.7 -4.0 91 -4 -4 по сезону 1028.2 925.0
03 16.02 Ю 1 20 км 10/0
[Cs]
-0.3 -2.9 83 -2 -1 по сезону 1025.8 923.8 26
06 16.02 СВ 1 10 км 3/0
[Ci fib]
+6.0 -1.8 57 +5 +13 тепло 1020.7 921.3 -3.0
09 16.02 ЮВ 1 4000 м дым 10/0
[Ci]
+9.2 +0.1 53 +9 +14 тепло 1016.4 918.6
12 16.02 штиль 0 10 км 10/0
[Ci sp]
+6.4 0.0 64 +6 +6 тепло 1015.3 916.6
15 16.02 З 1 н/о 10/0
[Ac As]
+3.3 -0.9 74 +2 +2 тепло 1014.6 915.0 +9.3
18 16.02 Ю 1 н/о 10/4 600 м
[Cb cap Ac As]
+2.5 -1.5 75 +1 +1 тепло 1013.4 913.6 +9.3
21 16.02 штиль 0 н/о 10/4 600 м
[Cb cap Ac As]
+2.1 -0.8 81 +1 +1 тепло 1012.6 912.7
00 17.02 С 1
{5}
н/о 10/6 600 м
[Cb cap Ac As]
+7.1 -2.5 50 +7 +7 тепло 1016.2 917.6
03 17.02 штиль 0 10 км 10/4 600 м
[Cb cap Ac trans Ci sp]
+6.8 -1.0 58 +6 +7 тепло 1017.8 919.0 23
06 17.02 З 1 10 км 9/3 600 м
[Cb cap Ac trans Ci sp]
+10.1 -0.5 48 +10 +13 тепло 1017.1 919.4 +1.8
09 17.02 В 1 10 км 10/6 600 м
[Cb cap Ci sp]
+10.4 +0.6 51 +10 +12 тепло 1016.6 919.1
12 17.02 штиль 0 10 км 10/10 600 м
[Cb cap]
+6.1 +1.9 74 +5 +5 тепло 1017.8 918.8
15 17.02 штиль 0 н/о слабый ливневой дождь 10/10 600 м
[Cb cap]
+2.9 +2.2 95 +2 +2 тепло 1022.8 922.2 +12.8
18 17.02 штиль 0 н/о туман {ливн. осадки} ?/? +2.3 +2.1 99 +1 +1 тепло 1018.6 918.2 +12.8 3
21 17.02 штиль 0 н/о слабая морось {туман} ?/? +1.3 +1.1 99 -0 -0 тепло 1016.2 915.7
00 18.02 штиль 0
{3}
н/о слабая морось {туман} ?/? +1.1 +0.9 99 -0 -0 тепло 1013.4 913.2
03 18.02 Ю 1 1000 м сильная морось {туман} 10/10 200 м
[St]
0.0 -0.5 96 -2 -2 по сезону 1016.8 915.8 17
06 18.02 штиль 0 1000 м слабая переохл. морось (гололёд) 10/10 300 м
[St]
-0.5 -0.8 98 -2 -2 по сезону 1018.6 917.2 -0.1 2
09 18.02 штиль 0 4000 м слабый ливневой снег {морось} 10/10 600 м
[Cb cap]
+0.1 -1.0 92 -1 -1 по сезону 1014.8 914.0
12 18.02 ЮЗ 1 1000 м дымка {ливн. осадки, морось} 10/10 300 м
[St]
-0.4 +0.1 100 -3 -3 по сезону 1015.9 914.8
15 18.02 штиль 0 н/о туман {ливн. осадки} ?/? -0.7 -1.1 97 -2 -2 по сезону 1017.5 916.2 +1.1
18 18.02 штиль 0 н/о слабая переохл. морось (гололёд) {туман} 10/10 300 м
[St]
-0.5 -1.1 96 -2 -2 по сезону 1018.4 917.0 +1.1 1
21 18.02 штиль 0 н/о слабая переохл. морось (гололёд) [диам. гололёда 1 мм] 10/10 300 м
[St]
+0.1 -0.7 94 -1 -1 по сезону 1022.8 921.2
00 19.02 штиль 0
{4}
н/о слабый снег {морось} [диам. гололёда 1 мм] 10/0
[As op]
-0.1 -0.9 94 -1 -1 тепло 1026.8 924.8
03 19.02 штиль 0 4000 м слабый снег [диам. гололёда 1 мм] 10/0 300 м
[As op]
-1.7 -5.3 76 -3 -2 по сезону 1034.4 931.0 19
06 19.02 З 1 4000 м слабый снег [диам. гололёда 1 мм] 10/10 300 м
[Frnb Ns]
-3.0 -6.0 80 -5 -5 прохладно 1038.5 934.1 -2.2 1
09 19.02 С 1 4000 м слабый снег 10/10 300 м
[Frnb Ns]
-4.0 -5.8 87 -6 -6 прохладно 1039.6 934.8
12 19.02 Ю 1 4000 м слабый снег 10/0 300 м
[As op]
-4.5 -5.7 91 -7 -7 холодно 1041.3 936.2
15 19.02 С 2 н/о в посл. час снег 10/10 300 м
[St]
-6.0 -7.1 92 -10 -10 холодно 1042.7 936.8 -1.7
18 19.02 В 2 н/о слабый снег 10/8 300 м
[St As op]
-7.5 -9.6 85 -12 -12 холодно 1042.5 936.1 -1.7 5
21 19.02 ЮВ 1 н/о {снег} 10/0
[Ac lent Cc]
-7.5 -9.2 88 -10 -10 прохладно 1041.7 935.4
00 20.02 штиль 0
{6}
н/о {снег} 4/0
[Ci fib]
-9.2 -10.3 92 -10 -10 по сезону 1041.9 934.9
03 20.02 штиль 0 20 км 10/0
[Ac trans Ci fib]
-6.3 -8.2 86 -7 -6 по сезону 1041.6 935.8 24
06 20.02 С 1 10 км 3/0
[Ci fib]
-0.7 -7.6 60 -2 +6 по сезону 1038.9 935.3 -9.3 0.0
09 20.02 В 1 10 км ясно +0.6 -9.3 47 -1 +6 по сезону 1036.9 934.0
12 20.02 С 1 10 км 1/0
[Ac lent]
-1.1 -10.6 48 -2 -2 по сезону 1037.7 934.1
15 20.02 штиль 0 н/о ясно -4.4 -8.4 74 -5 -5 по сезону 1038.8 933.9 +1.1
18 20.02 штиль 0 н/о ясно -6.1 -9.1 79 -7 -7 по сезону 1036.9 931.6 +1.1
21 20.02 штиль 0 н/о ясно -7.7 -9.8 85 -8 -8 по сезону 1035.4 929.6
00 21.02 штиль 0
{3}
н/о ясно -7.9 -10.1 84 -9 -9 по сезону 1033.4 927.7
03 21.02 штиль 0 20 км ясно -6.3 -9.7 77 -7 -5 прохладно 1032.3 927.3 20
06 21.02 штиль 0 20 км ясно +0.6 -11.9 39 0 +11 по сезону 1028.7 926.6 -8.7
09 21.02 штиль 0 20 км ясно +1.3 -8.6 48 +1 +8 по сезону 1026.7 925.0
12 21.02 штиль 0 10 км ясно -0.1 -7.3 58 -1 -1 по сезону 1027.4 925.2
15 21.02 штиль 0 н/о ясно -3.1 -7.5 72 -4 -4 по сезону 1029.1 925.7 +3.1
18 21.02 штиль 0 н/о ясно -4.7 -8.1 77 -6 -6 по сезону 1029.6 925.5 +3.1

 

Местоположение метеостанции Алматы (Алматинская область, Казахстан): широта 43.23 долгота 76.93 высота над уровнем моря 851 м.

В архиве по умолчанию представлена погода в Алматы за последнюю неделю. Архивные данные за месяц целиком и за предыдущие месяцы, начиная с января 2011 года, Вы можете получить, выбрав интересующий диапазон дат из раскрывающегося списка и нажав кнопку "Ввод!".

Внимание! Время в таблицах - всемирное. Для получения местного времени необходимо прибавить поправку, которая в Алматы равна 6 ч.

Смотрите также архив погоды в соседних городах и на ближайших метеорологических станциях:

Погода в Алматы АМС (Алматинская область, Казахстан) (4 км)
Погода в Каменском плато (Алматинская область, Казахстан) (6 км)
Погода в Медеу (Алматинская область, Казахстан) (12 км)
Погода в Карасайском (Алматинская область, Казахстан) (15 км)
Погода в Шымбулаке (Алматинская область, Казахстан) (16 км)
Погода в Большом Алматинском озере (Алматинская область, Казахстан) (18 км)
Погода в Альмереке (Алматинская область, Казахстан) (21 км)
Погода в Коныролене (Алматинская область, Казахстан) (24 км)
Погода в Рыскулово (Алматинская область, Казахстан) (30 км)
Погода в Илийском (Алматинская область, Казахстан) (33 км)

Пояснения к столбцам:

Ветер - указаны скорость ветра в м/с - средняя за 10 мин, порывы в срок и между сроками (в фигурных скобках) и направление, откуда дует ветер: С - северный, СВ - северо-восточный, В - восточный, ЮВ - юго-восточный, Ю - южный, ЮЗ - юго-западный, З - западный, СЗ - северо-западный.
Видимость - горизонтальная дальность видимости в метрах или километрах. При видимости от 1 до 10 км при отсутствии осадков обычно наблюдается дымка, при ухудшении видимости до 1 км и менее - туман. В сухую погоду видимость может ухудшаться дымом, пылью или мглою.
Явления - указаны атмосферные явления, наблюдавшиеся в срок или в последний час перед сроком; фигурными скобками обозначены явления, наблюдавшиеся между сроками (за 1-3 часа до срока); квадратными скобками обозначены град или гололедные отложения с указанием их диаметра в мм.
Облачность - указаны через наклонную черту общая и нижняя облачность в баллах и высота нижней границы облаков в метрах; квадратными скобками обозначены формы облаков: Ci - перистые, Cs - перисто-слоистые, Cc - перисто-кучевые, Ac - высококучевые, As - высокослоистые, Sc - слоисто-кучевые, Ns - слоисто-дождевые, Cu - кучевые, Cb - кучево-дождевые. Подробнее классификацию облаков см. в Атласе облаков (PDF).
T - Температура воздуха - температура, измеренная на высоте 2 м над землей.
Td - Температура точки росы - температура, при понижении до которой содержащийся в воздухе водяной пар достигнет насыщения.
f - Относительная влажность воздуха - влажноcть воздуха, измеренная на высоте 2 м над землей.
Te - Эффективная температура - температура, которую ощущает одетый по сезону человек в тени. Характеристика душности погоды. При расчете учитывается влияние влажности воздуха и скорости ветра на теплоощущения человека.
Tes - Эффективная температура на солнце - температура, которую ощущает человек, с поправкой на солнечный нагрев. Характеристика знойности погоды. Зависит от высоты солнца над горизонтом, облачности и скорости ветра. Ночью, в пасмурную погоду, а также при ветре 12 м/с и более поправка равна нулю.
P - Атмосферное давление - приведенное к уровню моря атмосферное давление.
Po - Атмосферное давление - измеренное на уровне метеостанции атмосферное давление.
Tmin - Минимальная температура - минимум температуры воздуха на высоте 2 м над землей.
Tmax - Максимальная температура - максимум температуры воздуха на высоте 2 м над землей.
R - Количество осадков - Количество выпавших осадков, мм. При наведении курсора мыши на число - период времени, за который выпало указанное количество осадков.
S - Снежный покров - Высота снежного покрова, см. При наведении курсора мыши на число - состояние снежного покрова и степень покрытия местности в баллах.